Regional Weather Roundup
Issued by NWS

Home | Current Version | Previous Version | Graphics & Text | Print | Product List | Glossary On
Versions: 1 2 3 4 5 6 7 8 9 10 11 12 13 14 15 16 17 18 19 20 21 22 23 24 25 26 27 28 29 30 31 32 33 34 35 36 37 38 39 40 41 42 43 44 45 46 47 48 49 50
000
ASUS43 KLSX 300007
RWRMO

WEATHER SUMMARY FOR MISSOURI
NATIONAL WEATHER SERVICE SPRINGFIELD MO
700 PM CDT FRI APR 29 2016

NOTE: "FAIR" INDICATES FEW OR NO CLOUDS BELOW 12,000 FEET WITH NO
       SIGNIFICANT WEATHER AND/OR OBSTRUCTIONS TO VISIBILITY.
       CURRENT SKY AND/OR WEATHER CONDITIONS ARE NOT AVAILABLE FOR
       CHILLICOTHE AND FARMINGTON.

MOZ001>031-035>038-043-044-053-054-300100-
...NORTHERN AND WESTERN MISSOURI...

CITY           SKY/WX    TMP DP  RH WIND       PRES   REMARKS
KANSAS CTY INT CLOUDY    52  50  93 NE23G33   29.85F
6HR MIN TEMP:  52; 6HR MAX TEMP:  55; 6HR PCP:  0.21;

KANSAS C DTWN  CLOUDY    54  51  90 NE14G20   29.86F
6HR MIN TEMP:  54; 6HR MAX TEMP:  58; 6HR PCP:  0.12;

LEE`S SUMMIT   LGT RAIN  53  51  93 NE17      29.87F
6HR MIN TEMP:  53; 6HR MAX TEMP:  58; 6HR PCP:  0.24;

ST JOSEPH      CLOUDY    51  48  89 NE14G22   29.90S
6HR MIN TEMP:  51; 6HR MAX TEMP:  55; 6HR PCP:  0.20;

CHILLICOTHE      N/A     53  49  86 NE6       30.01R
6HR MIN TEMP:  53; 6HR MAX TEMP:  57; 6HR PCP:  0.04;

KIRKSVILLE     CLOUDY    52  46  80 NE12      29.99F
6HR MIN TEMP:  52; 6HR MAX TEMP:  54; 6HR PCP: TRACE;


$$
MOZ066>068-077>081-088>096-101>105-300100-
...SOUTHWEST MISSOURI...

CITY           SKY/WX    TMP DP  RH WIND       PRES   REMARKS
SPRINGFIELD    CLOUDY    60  57  89 E12       29.77F
6HR MIN TEMP:  60; 6HR MAX TEMP:  64;

JOPLIN         TSTM      60  58  92 NE10      29.75R FOG
6HR MIN TEMP:  60; 6HR MAX TEMP:  68; 6HR PCP:  0.34;

BRANSON        LGT RAIN  57  57 100 E15G22    29.78F VSB 1/8

$$
MOZ032>034-039>042-045>050-055>058-069>072-300100-
...CENTRAL MISSOURI...

CITY           SKY/WX    TMP DP  RH WIND       PRES   REMARKS
COLUMBIA       CLOUDY    62  52  69 E14       29.92R
6HR MIN TEMP:  61; 6HR MAX TEMP:  64;

JEFFERSON CITY CLOUDY    63  51  65 E9        29.90F
6HR MIN TEMP:  59; 6HR MAX TEMP:  65;

ROLLA          CLOUDY    59  52  77 E12       29.88F
6HR MIN TEMP:  56; 6HR MAX TEMP:  61; 6HR PCP: TRACE;

SEDALIA        LGT RAIN  60  53  77 NE7       29.94R
6HR MIN TEMP:  60; 6HR MAX TEMP:  64; 6HR PCP:  0.03;

WHITEMAN AFB   RAIN      56  56 100 NE14      29.87F
WARRENSBURG    LGT RAIN  54  52  94 NE13G26   29.85F
OSAGE BEACH    CLOUDY    61  46  59 E9        29.87S

$$
MOZ051-052-059>065-300100-
...EAST CENTRAL MISSOURI...

CITY           SKY/WX    TMP DP  RH WIND       PRES   REMARKS
ST LOUIS INTL  MOCLDY    64  52  64 E10       29.97S
6HR MIN TEMP:  62; 6HR MAX TEMP:  66;

SPIRIT OF STL  MOCLDY    63  53  70 E8        29.95R
6HR MIN TEMP:  61; 6HR MAX TEMP:  65;

ST CHARLES     MOCLDY    62  54  74 E13       29.96R
6HR MIN TEMP:  61; 6HR MAX TEMP:  66;


$$
MOZ072>076-082>087-097>100-106>115-300100-
...SOUTH CENTRAL AND SOUTHEAST MISSOURI...

CITY           SKY/WX    TMP DP  RH WIND       PRES   REMARKS
CAPE GIRARDEAU CLOUDY    61  57  87 NE8       29.93F
6HR MIN TEMP:  59; 6HR MAX TEMP:  62; 6HR PCP:  0.11;

FARMINGTON     CLOUDY    61  55  82 E9        29.94S
6HR MIN TEMP:  58; 6HR MAX TEMP:  61; 6HR PCP: TRACE;

POPLAR BLUFF   CLOUDY    62  58  86 E7        29.89F
6HR MIN TEMP:  56; 6HR MAX TEMP:  62; 6HR PCP:  0.20;

WEST PLAINS    CLOUDY    59  56  89 E10       29.85F
6HR MIN TEMP:  56; 6HR MAX TEMP:  60; 6HR PCP:  0.01;


$$


USA.gov is the U.S. government's official web portal to all federal, state and local government web resources and services.